Location: Newark
(48.1500°N, 13.1167°E)
Time: 10:51:18
(UTC+00:00)

XW-2F - Visible Passes

Search period start: 06 December 2021 00:00
Search period end: 16 December 2021 00:00
Orbit: 497 x 514 km, 97.5° (Epoch: 06 December)

Date Brightness Start Highest point End Pass type
(mag) Time Alt. Az. Time Alt. Az. Time Alt. Az.
06 Dec ? 04:56:38 10° NNE 05:00:09 35° E 05:03:37 10° SSE visible
06 Dec ? 17:12:58 10° SSW 17:16:06 25° W 17:19:16 10° NW visible
07 Dec ? 04:39:12 10° NE 04:42:15 23° E 04:45:16 10° SSE visible
07 Dec ? 16:54:42 10° SSW 16:58:12 39° W 17:01:46 10° NNW visible
08 Dec ? 04:22:04 10° NE 04:24:18 15° E 04:26:31 10° SE visible
08 Dec ? 05:54:47 10° N 05:58:26 48° WNW 06:02:04 10° SSW visible
08 Dec ? 16:36:40 10° S 16:40:22 65° W 16:44:07 10° NNW visible
09 Dec ? 05:36:54 10° N 05:40:40 78° WNW 05:44:25 10° SSW visible
09 Dec ? 16:18:49 10° SSE 16:22:32 78° ENE 16:26:19 10° N visible
10 Dec ? 05:19:06 10° NNE 05:22:51 65° E 05:26:35 10° S visible
10 Dec ? 16:01:10 10° SSE 16:04:46 48° ENE 16:08:25 10° N visible
10 Dec ? 17:36:44 10° SW 17:38:55 15° W 17:41:07 10° NW visible
11 Dec ? 05:01:25 10° NNE 05:04:59 40° E 05:08:31 10° S visible
11 Dec ? 15:43:43 10° SE 15:47:02 31° ENE 15:50:23 10° N visible
11 Dec ? 17:17:56 10° SSW 17:20:56 23° W 17:23:58 10° NW visible
12 Dec ? 04:43:53 10° NE 04:47:04 25° E 04:50:13 10° SSE visible
12 Dec ? 16:59:32 10° SSW 17:03:00 35° W 17:06:29 10° NNW visible
13 Dec ? 04:26:36 10° NE 04:29:05 17° E 04:31:33 10° SE visible
13 Dec ? 05:59:34 10° N 06:03:10 42° WNW 06:06:43 10° SW visible
13 Dec ? 16:41:25 10° S 16:45:06 57° W 16:48:50 10° NNW visible
14 Dec ? 04:10:09 10° ENE 04:11:03 11° E 04:11:58 10° ESE visible
14 Dec ? 05:41:37 10° N 05:45:23 69° WNW 05:49:06 10° SSW visible
14 Dec ? 16:23:29 10° SSE 16:27:14 88° ENE 16:31:02 10° NNW visible
15 Dec ? 05:23:46 10° NNE 05:27:32 74° ESE 05:31:16 10° S visible
15 Dec ? 16:05:46 10° SSE 16:09:25 54° ENE 16:13:07 10° N visible
15 Dec ? 17:41:44 10° WSW 17:43:37 13° W 17:45:31 10° WNW visible
